Date String (YYYY-MM-DD hh:mm:ss) UTC,Instrument flags,Ambient pressure (hPa),Sample flow (lpm),Bypass flow (lpm),Sample temperature (°C),Ambient temperature (°C),ASC tube jacket temperature (°C),LED temperature (°C),Box temperature (°C),Sample RH (%),Span deviation,Mass concentration (μg/m³),Mass concentration (μg/m³),Mass concentration (μg/m³)
DateTimeUTC,F1_M11,P_M11,Q1_M11,Q2_M11,T1_M11,T2_M11,T3_M11,T4_M11,T5_M11,U1_M11,ZSPAN_M11,X0_M11,X2_M11,X1_M11
2022-02-27 01:00:00,,0832.1,4.99,0.00,24.3,23.4,00.0,33.7,26.0,05.6,0000.7,0012.94,0007.85,0007.20
2022-02-27 01:01:00,,0832.1,5.00,0.00,24.3,23.4,00.0,33.6,25.9,05.6,0000.7,0013.51,0007.95,0007.30
2022-02-27 01:02:00,,0832.1,5.00,0.00,24.3,23.3,00.0,33.6,25.9,05.6,0001.4,0014.03,0008.08,0007.42
2022-02-27 01:03:00,,0832.2,5.01,0.00,24.3,23.3,00.0,33.6,25.9,05.6,0001.9,0014.61,0008.20,0007.52
2022-02-27 01:04:00,,0832.2,5.00,0.00,24.2,23.3,00.0,33.5,25.9,05.6,0002.0,0015.67,0008.29,0007.60
2022-02-27 01:05:00,,0832.1,5.00,0.00,24.2,23.3,00.0,33.5,25.9,05.5,0001.5,0015.91,0008.38,0007.66
2022-02-27 01:06:00,,0832.2,5.00,0.00,24.2,23.2,00.0,33.5,25.8,05.6,0001.8,0016.12,0008.48,0007.73
2022-02-27 01:07:00,,0832.2,5.00,0.00,24.2,23.2,00.0,33.4,25.7,05.5,0002.7,0016.19,0008.57,0007.81
2022-02-27 01:08:00,,0832.2,5.00,0.00,24.1,23.2,00.0,33.4,25.7,05.5,0002.3,0016.28,0008.64,0007.87
2022-02-27 01:09:00,,0832.2,5.00,0.00,24.1,23.2,00.0,33.4,25.7,05.6,0002.2,0016.24,0008.65,0007.89
2022-02-27 01:10:00,,0832.2,4.99,0.00,24.1,23.2,00.0,33.3,25.7,05.6,0002.7,0016.29,0008.69,0007.90
2022-02-27 01:11:00,,0832.2,5.00,0.00,24.0,23.1,00.0,33.3,25.6,05.6,0002.9,0015.15,0008.66,0007.86
2022-02-27 01:12:00,,0832.2,4.99,0.00,24.0,23.1,00.0,33.3,25.6,05.6,0003.2,0014.35,0008.64,0007.85
2022-02-27 01:13:00,,0832.2,4.99,0.00,24.0,23.1,00.0,33.3,25.6,05.6,0003.6,0014.37,0008.63,0007.86
2022-02-27 01:14:00,,0832.2,5.00,0.00,23.9,23.0,00.0,33.2,25.5,05.7,0003.2,0014.06,0008.53,0007.82
2022-02-27 01:15:00,,0832.2,5.00,0.00,23.9,23.0,00.0,33.2,25.5,05.8,0003.1,0013.25,0008.54,0007.82
2022-02-27 01:16:00,,0832.2,4.99,0.00,23.9,23.0,00.0,33.2,25.5,05.8,0003.3,0013.68,0008.60,0007.86
2022-02-27 01:17:00,,0832.3,5.01,0.00,23.9,23.0,00.0,33.1,25.5,05.7,0003.2,0014.38,0008.62,0007.86
2022-02-27 01:18:00,,0832.3,4.99,0.00,23.8,22.9,00.0,33.1,25.5,05.8,0002.6,0014.49,0008.67,0007.88
2022-02-27 01:19:00,,0832.3,5.00,0.00,23.8,22.9,00.0,33.1,25.4,05.9,0002.7,0014.54,0008.75,0007.96
2022-02-27 01:20:00,,0832.3,5.00,0.00,23.8,22.9,00.0,33.1,25.4,06.0,0003.2,0014.77,0008.92,0008.10
2022-02-27 01:21:00,,0832.4,5.01,0.00,23.8,22.9,00.0,33.0,25.4,06.1,0003.0,0015.16,0009.12,0008.29
2022-02-27 01:22:00,,0832.4,5.00,0.00,23.7,22.9,00.0,33.0,25.3,06.4,0002.7,0015.73,0009.41,0008.58
2022-02-27 01:23:00,,0832.4,5.01,0.00,23.7,22.9,00.0,33.0,25.3,06.4,0002.3,0016.18,0009.72,0008.86
2022-02-27 01:24:00,,0832.5,5.00,0.00,23.7,22.8,00.0,32.9,25.3,06.5,0002.4,0016.08,0010.07,0009.17
2022-02-27 01:25:00,,0832.5,5.00,0.00,23.7,22.8,00.0,32.9,25.3,06.6,0002.7,0016.40,0010.48,0009.51
2022-02-27 01:26:00,,0832.5,5.00,0.00,23.7,22.8,00.0,32.9,25.3,06.8,0002.9,0017.19,0010.86,0009.90
2022-02-27 01:27:00,,0832.5,4.99,0.00,23.7,22.8,00.0,32.9,25.3,07.0,0003.1,0017.10,0011.22,0010.28
2022-02-27 01:28:00,,0832.5,5.00,0.00,23.6,22.8,00.0,32.8,25.2,07.1,0003.4,0016.61,0011.70,0010.78
2022-02-27 01:29:00,,0832.5,4.99,0.00,23.6,22.7,00.0,32.8,25.2,07.2,0003.4,0017.19,0012.17,0011.31
2022-02-27 01:30:00,,0832.5,5.00,0.00,23.6,22.7,00.0,32.8,25.2,07.4,0003.0,0017.71,0012.69,0011.79
2022-02-27 01:31:00,,0832.5,5.00,0.00,23.5,22.7,00.0,32.8,25.1,07.6,0002.7,0018.11,0013.12,0012.22
2022-02-27 01:32:00,,0832.5,5.00,0.00,23.5,22.6,00.0,32.8,25.1,07.6,0002.6,0018.32,0013.49,0012.58
2022-02-27 01:33:00,,0832.5,5.00,0.00,23.5,22.6,00.0,32.7,25.1,07.6,0002.6,0018.89,0013.77,0012.87
2022-02-27 01:34:00,,0832.5,5.00,0.00,23.4,22.6,00.0,32.7,25.0,07.6,0002.8,0019.32,0014.06,0013.13
2022-02-27 01:35:00,,0832.5,5.00,0.00,23.4,22.5,00.0,32.7,25.0,07.6,0002.6,0019.74,0014.31,0013.38
2022-02-27 01:36:00,,0832.5,5.00,0.00,23.4,22.5,00.0,32.7,25.0,07.6,0002.6,0020.15,0014.54,0013.60
2022-02-27 01:37:00,,0832.5,5.00,0.00,23.4,22.4,00.0,32.6,25.0,07.6,0003.0,0020.05,0014.79,0013.82
2022-02-27 01:38:00,,0832.5,5.00,0.00,23.3,22.4,00.0,32.6,24.9,07.6,0002.7,0020.18,0014.91,0013.90
2022-02-27 01:39:00,,0832.5,5.00,0.00,23.3,22.3,00.0,32.6,24.9,07.7,0002.5,0020.67,0015.03,0013.95
2022-02-27 01:40:00,,0832.5,5.00,0.00,23.3,22.3,00.0,32.5,24.9,07.8,0002.3,0021.58,0015.08,0013.99
2022-02-27 01:41:00,,0832.5,5.00,0.00,23.2,22.3,00.0,32.5,24.8,07.7,0002.6,0021.82,0015.14,0014.03
2022-02-27 01:42:00,,0832.5,5.00,0.00,23.2,22.2,00.0,32.5,24.8,07.8,0002.5,0022.02,0015.23,0014.08
2022-02-27 01:43:00,,0832.5,5.01,0.00,23.1,22.2,00.0,32.5,24.7,07.8,0002.3,0022.31,0015.35,0014.18
2022-02-27 01:44:00,,0832.5,5.00,0.00,23.1,22.1,00.0,32.4,24.7,07.9,0002.2,0022.00,0015.44,0014.27
2022-02-27 01:45:00,,0832.5,5.00,0.00,23.1,22.1,00.0,32.4,24.7,07.9,0002.3,0022.14,0015.53,0014.34
2022-02-27 01:46:00,,0832.5,5.00,0.00,23.0,22.1,00.0,32.4,24.6,07.9,0002.2,0022.09,0015.59,0014.41
2022-02-27 01:47:00,,0832.5,5.00,0.00,23.0,22.1,00.0,32.3,24.6,08.0,0002.1,0023.21,0015.64,0014.47
2022-02-27 01:48:00,,0832.5,5.00,0.00,23.0,22.0,00.0,32.3,24.6,08.1,0001.8,0024.10,0015.69,0014.52
2022-02-27 01:49:00,,0832.5,4.99,0.00,22.9,22.0,00.0,32.3,24.6,08.2,0001.4,0024.55,0015.74,0014.56
2022-02-27 01:50:00,,0832.5,5.00,0.00,22.9,22.0,00.0,32.2,24.5,08.3,0001.5,0024.38,0015.72,0014.57
2022-02-27 01:51:00,,0832.5,5.00,0.00,22.9,22.0,00.0,32.2,24.5,08.3,0001.7,0023.80,0015.72,0014.54
2022-02-27 01:52:00,,0832.5,5.01,0.00,22.9,22.0,00.0,32.2,24.5,08.2,0001.3,0023.62,0015.65,0014.49
2022-02-27 01:53:00,,0832.5,5.00,0.00,22.9,22.0,00.0,32.2,24.5,08.3,0001.3,0023.40,0015.57,0014.46
2022-02-27 01:54:00,,0832.5,5.00,0.00,22.8,22.0,00.0,32.1,24.5,08.4,0001.5,0023.41,0015.49,0014.42
2022-02-27 01:55:00,,0832.5,5.00,0.00,22.8,22.0,00.0,32.1,24.5,08.5,0001.5,0023.35,0015.39,0014.34
2022-02-27 01:56:00,,0832.5,4.99,0.00,22.8,22.0,00.0,32.1,24.4,08.5,0001.0,0023.28,0015.30,0014.26
2022-02-27 01:57:00,,0832.5,5.00,0.00,22.8,21.9,00.0,32.0,24.4,08.5,0000.8,0023.64,0015.29,0014.25
2022-02-27 01:58:00,,0832.5,5.00,0.00,22.7,21.9,00.0,32.0,24.3,08.5,0000.5,0022.62,0015.24,0014.24
2022-02-27 01:59:00,,0832.5,5.01,0.00,22.7,21.9,00.0,32.0,24.3,08.5,-000.1,0021.47,0015.17,0014.20
